Simultaneous Nadir Overpasses (SNOs) Predictions

Prediction of SNOs between AQUA and NPP Satellite Orbit:

Table of predicted SNOs for the next 14.0 days since TLE Epoch: 6/10/2012
Index Date (AQUA) Time (AQUA) Lat,Lon (AQUA) SZA (AQUA ) Date (NPP) Time (NPP) Lat,Lon (NPP) SZA (NPP ) Distance(km) Time Diff (sec)
1 06/11/2012 14:54:44 76.30,-163.79 74.22 06/11/2012 14:53:41 76.29,-163.86 74.29 2.03 63
2 06/11/2012 15:43:52 -77.22, 7.10 106.90 06/11/2012 15:44:06 -77.22, 7.08 106.91 0.49 14
3 06/14/2012 07:10:59 76.87, -45.96 73.42 06/14/2012 07:10:20 76.87, -45.87 73.43 2.31 39
4 06/14/2012 08:00:15 -77.40, 123.70 107.24 06/14/2012 08:00:54 -77.39, 123.63 107.26 1.82 39
5 06/16/2012 23:27:25 76.88, 69.98 73.34 06/16/2012 23:27:12 76.88, 69.92 73.36 1.85 13
6 06/17/2012 00:16:35 -77.69,-119.22 107.67 06/17/2012 00:17:39 -77.69,-119.21 107.73 0.41 64
7 06/19/2012 14:54:37 -76.28, 16.16 105.96 06/19/2012 14:53:33 -76.27, 16.09 105.89 2.28 64
8 06/19/2012 15:43:45 77.11,-173.30 73.04 06/19/2012 15:43:58 77.10,-173.39 73.05 2.52 13
9 06/22/2012 07:10:53 -76.72, 133.54 106.46 06/22/2012 07:10:15 -76.72, 133.55 106.43 0.38 38




NCC Satellite Simultaneous Nadir Overpasses (SNOs) Prediction Service
